• In Hungary
  • List of Countries
  • For 7 days
  • Water Temperature
  • Satellite Maps
  • Weather Map
  • News
  • Weather Widgets
  • user-avatar
    Login

    Hourly Weather Spring Valley

    Today, 19 January, Friday

    Time Temperature Precipitation Wind Pressure Humidity
    00:00 -8°C° 0 mm 3 mps 750 mmHg 85%
    01:00 -8°C° 0 mm 3 mps 750 mmHg 86%
    02:00 -9°C° 0 mm 3 mps 750 mmHg 86%
    03:00 -9°C° 0 mm 3 mps 750 mmHg 86%
    04:00 -9°C° 0 mm 3 mps 750 mmHg 87%
    05:00 -9°C° 0 mm 3 mps 750 mmHg 86%
    06:00 -9°C° 0 mm 3 mps 750 mmHg 86%
    07:00 -9°C° 0 mm 3 mps 750 mmHg 86%
    08:00 -8°C° 0 mm 3 mps 750 mmHg 80%
    09:00 -6°C° 0 mm 3 mps 750 mmHg 75%
    10:00 -5°C° 0 mm 3 mps 750 mmHg 70%
    11:00 -4°C° 0 mm 3 mps 750 mmHg 68%
    12:00 -2°C° 0 mm 3 mps 750 mmHg 67%
    13:00 0°C° 0 mm 3 mps 749 mmHg 65%
    14:00 0°C° 0 mm 3 mps 749 mmHg 67%
    15:00 0°C° 0 mm 3 mps 749 mmHg 70%
    16:00 0°C° 0 mm 3 mps 749 mmHg 72%
    17:00 -1°C° 0 mm 3 mps 749 mmHg 77%
    18:00 -2°C° 0 mm 3 mps 749 mmHg 81%
    19:00 -4°C° 0 mm 3 mps 749 mmHg 86%
    20:00 -4°C° 0 mm 3 mps 749 mmHg 86%
    21:00 -4°C° 0 mm 3 mps 749 mmHg 85%
    22:00 -4°C° 0 mm 3 mps 749 mmHg 85%
    23:00 -4°C° 0 mm 3 mps 749 mmHg 84%

    Tomorrow, 20 January, Saturday

    Time Temperature Precipitation Wind Pressure Humidity
    00:00 -4°C° 0 mm 3 mps 748 mmHg 82%
    01:00 -4°C° 0 mm 4 mps 748 mmHg 81%
    02:00 -4°C° 0 mm 4 mps 748 mmHg 81%
    03:00 -4°C° 0 mm 4 mps 747 mmHg 80%
    04:00 -3°C° 0 mm 4 mps 747 mmHg 80%
    05:00 -3°C° 0 mm 4 mps 747 mmHg 78%
    06:00 -3°C° 0 mm 4 mps 747 mmHg 77%
    07:00 -3°C° 0 mm 4 mps 747 mmHg 75%
    08:00 -1°C° 0 mm 5 mps 747 mmHg 71%
    09:00 0°C° 0 mm 5 mps 747 mmHg 67%
    10:00 +2°C° 0 mm 5 mps 748 mmHg 63%
    11:00 +3°C° 0 mm 5 mps 747 mmHg 62%
    12:00 +5°C° 0 mm 5 mps 747 mmHg 62%
    13:00 +5°C° 0 mm 5 mps 747 mmHg 61%
    14:00 +5°C° 0 mm 4 mps 747 mmHg 66%
    15:00 +4°C° 0 mm 4 mps 748 mmHg 70%
    16:00 +3°C° 0 mm 3 mps 748 mmHg 75%
    17:00 +2°C° 0 mm 3 mps 748 mmHg 80%
    18:00 +1°C° 0 mm 3 mps 749 mmHg 84%
    19:00 0°C° 0 mm 3 mps 750 mmHg 89%
    20:00 0°C° 0 mm 3 mps 750 mmHg 89%
    21:00 -1°C° 0 mm 3 mps 750 mmHg 90%
    22:00 -1°C° 0 mm 3 mps 751 mmHg 91%
    23:00 -1°C° 0 mm 3 mps 751 mmHg 91%

    Day after tomorrow, 21 January, Sunday

    Time Temperature Precipitation Wind Pressure Humidity
    00:00 -1°C° 0 mm 3 mps 751 mmHg 90%
    01:00 -1°C° 0 mm 3 mps 751 mmHg 90%
    02:00 -2°C° 0 mm 3 mps 751 mmHg 90%
    03:00 -2°C° 0 mm 3 mps 751 mmHg 90%
    04:00 -2°C° 0 mm 2 mps 751 mmHg 90%
    05:00 -2°C° 0 mm 2 mps 752 mmHg 90%
    06:00 -2°C° 0 mm 2 mps 752 mmHg 90%
    07:00 -2°C° 0 mm 2 mps 752 mmHg 91%
    08:00 -1°C° 0 mm 2 mps 753 mmHg 86%
    09:00 +2°C° 0 mm 2 mps 753 mmHg 81%
    10:00 +3°C° 0 mm 2 mps 753 mmHg 76%
    11:00 +3°C° 0 mm 3 mps 753 mmHg 73%
    12:00 +4°C° 0 mm 3 mps 753 mmHg 71%
    13:00 +5°C° 0 mm 3 mps 752 mmHg 68%
    14:00 +4°C° 0 mm 3 mps 752 mmHg 71%
    15:00 +5°C° 0 mm 2 mps 753 mmHg 75%
    16:00 +5°C° 0 mm 2 mps 753 mmHg 78%
    17:00 +4°C° 0 mm 2 mps 753 mmHg 81%
    18:00 +4°C° 0 mm 1 mps 754 mmHg 84%
    19:00 +3°C° 0 mm 1 mps 754 mmHg 87%
    20:00 +3°C° 0 mm 1 mps 754 mmHg 89%
    21:00 +3°C° 0 mm 1 mps 754 mmHg 90%
    22:00 +3°C° 0 mm 1 mps 755 mmHg 91%
    23:00 +3°C° 0 mm 1 mps 755 mmHg 92%

    22 January, Monday

    Time Temperature Precipitation Wind Pressure Humidity
    00:00 +2°C° 0 mm 1 mps 755 mmHg 93%
    01:00 +1°C° 0 mm 0 mps 755 mmHg 93%
    02:00 +1°C° 0 mm 0 mps 755 mmHg 94%
    03:00 +1°C° 0 mm 0 mps 755 mmHg 94%
    04:00 +1°C° 0 mm 0 mps 755 mmHg 94%
    05:00 +2°C° 0 mm 1 mps 755 mmHg 94%
    06:00 +2°C° 0 mm 1 mps 755 mmHg 95%
    07:00 +2°C° 0 mm 1 mps 756 mmHg 95%
    08:00 +1°C° 0.1 mm 2 mps 756 mmHg 94%
    09:00 +2°C° 0.1 mm 2 mps 756 mmHg 93%
    10:00 +2°C° 0.1 mm 2 mps 756 mmHg 93%
    11:00 +2°C° 0.3 mm 2 mps 756 mmHg 94%
    12:00 +2°C° 0.3 mm 2 mps 755 mmHg 95%
    13:00 +2°C° 0.3 mm 2 mps 755 mmHg 96%
    14:00 +2°C° 0.1 mm 2 mps 755 mmHg 96%
    15:00 +3°C° 0.1 mm 2 mps 754 mmHg 96%
    16:00 +3°C° 0.1 mm 2 mps 754 mmHg 97%
    17:00 +2°C° 0.1 mm 3 mps 754 mmHg 97%
    18:00 +3°C° 0.1 mm 3 mps 753 mmHg 97%
    19:00 +3°C° 0.1 mm 3 mps 753 mmHg 98%
    20:00 +4°C° 0.1 mm 4 mps 752 mmHg 97%
    21:00 +5°C° 0.1 mm 4 mps 751 mmHg 97%
    22:00 +6°C° 0.1 mm 4 mps 750 mmHg 96%
    23:00 +6°C° 0.2 mm 4 mps 750 mmHg 95%

    23 January, Tuesday

    Time Temperature Precipitation Wind Pressure Humidity
    00:00 +6°C° 0.2 mm 4 mps 749 mmHg 94%
    01:00 +6°C° 0.2 mm 4 mps 748 mmHg 94%
    02:00 +5°C° 2 mm 4 mps 747 mmHg 95%
    03:00 +5°C° 2 mm 4 mps 746 mmHg 96%
    04:00 +5°C° 2 mm 3 mps 745 mmHg 97%
    05:00 +5°C° 3.4 mm 3 mps 744 mmHg 97%
    06:00 +4°C° 3.4 mm 3 mps 744 mmHg 97%
    07:00 +5°C° 3.4 mm 2 mps 743 mmHg 98%
    08:00 +5°C° 0.5 mm 3 mps 743 mmHg 88%
    09:00 +5°C° 0.5 mm 5 mps 744 mmHg 79%
    10:00 +5°C° 0.5 mm 6 mps 744 mmHg 69%
    11:00 +5°C° 0 mm 6 mps 744 mmHg 67%
    12:00 +5°C° 0 mm 6 mps 744 mmHg 65%
    13:00 +4°C° 0 mm 7 mps 744 mmHg 63%
    14:00 +4°C° 0 mm 6 mps 745 mmHg 63%
    15:00 +4°C° 0 mm 6 mps 745 mmHg 64%
    16:00 +3°C° 0 mm 6 mps 746 mmHg 64%
    17:00 +2°C° 0 mm 6 mps 747 mmHg 67%
    18:00 +1°C° 0 mm 5 mps 747 mmHg 69%
    19:00 0°C° 0 mm 5 mps 748 mmHg 71%
    20:00 0°C° 0 mm 5 mps 749 mmHg 72%
    21:00 -1°C° 0 mm 5 mps 749 mmHg 73%
    22:00 -1°C° 0 mm 4 mps 750 mmHg 74%
    23:00 -2°C° 0 mm 4 mps 750 mmHg 74%

    24 January, Wednesday

    Time Temperature Precipitation Wind Pressure Humidity
    00:00 -2°C° 0 mm 4 mps 750 mmHg 74%
    01:00 -2°C° 0 mm 4 mps 750 mmHg 75%
    02:00 -2°C° 0 mm 4 mps 750 mmHg 74%
    03:00 -3°C° 0 mm 4 mps 751 mmHg 74%
    04:00 -3°C° 0 mm 4 mps 751 mmHg 73%
    05:00 -3°C° 0 mm 4 mps 751 mmHg 73%
    06:00 -3°C° 0 mm 4 mps 752 mmHg 72%
    07:00 -3°C° 0 mm 4 mps 752 mmHg 71%
    08:00 -2°C° 0 mm 5 mps 753 mmHg 66%
    09:00 -2°C° 0 mm 5 mps 753 mmHg 61%
    10:00 -1°C° 0 mm 5 mps 753 mmHg 56%
    11:00 0°C° 0 mm 5 mps 753 mmHg 53%
    12:00 +1°C° 0 mm 6 mps 753 mmHg 50%
    13:00 +1°C° 0 mm 6 mps 753 mmHg 47%
    14:00 +1°C° 0 mm 6 mps 753 mmHg 48%
    15:00 0°C° 0 mm 5 mps 754 mmHg 48%
    16:00 0°C° 0 mm 5 mps 754 mmHg 49%
    17:00 -1°C° 0 mm 5 mps 755 mmHg 52%
    18:00 -2°C° 0 mm 4 mps 755 mmHg 56%
    19:00 -3°C° 0 mm 4 mps 756 mmHg 59%
    20:00 -4°C° 0 mm 4 mps 756 mmHg 59%
    21:00 -4°C° 0 mm 4 mps 757 mmHg 59%
    22:00 -5°C° 0 mm 3 mps 757 mmHg 59%
    23:00 -5°C° 0 mm 3 mps 757 mmHg 59%
    Show more